Lawrence, MA

1:59 AM EDT on April 24, 2018 (GMT -0400)
Lawrence Municipal

Weather History for KLWM - December, 2012

Change the Weather History Date:

Sunday, December 2, 2012

  Actual Average Record
Temperature  
Mean Temperature 40 °F -  
Max Temperature 51 °F 44 °F 65 °F (1975)
Min Temperature 28 °F 26 °F 7 °F (1989)
Degree Days  
Heating Degree Days 26    
Moisture  
Dew Point 35 °F    
Average Humidity 86    
Maximum Humidity 93    
Minimum Humidity 71    
Precipitation  
Precipitation 0.01 in - - ()
Sea Level Pressure  
Sea Level Pressure 30.28 in    
Wind  
Wind Speed 2 mph (SW)    
Max Wind Speed 12 mph    
Max Gust Speed 20 mph    
Visibility 5 miles    
Events Fog , Rain    
Averages and records for this station are not official NWS values.
T = Trace of Precipitation, MM = Missing Value Source: NWS Daily Summary

Daily Weather History Graph

Daily Weather History Graph

Search for Another Location

Airport or City:

Astronomy

Dec. 02, 2012 Rise Set
Actual Time 6:56 AM EST 4:11 PM EST
Civil Twilight 6:25 AM EST 4:43 PM EST
Nautical Twilight 5:49 AM EST 5:18 PM EST
Astronomical Twilight 5:15 AM EST 5:52 PM EST
Moon 7:58 PM EST (12/2) 9:42 AM EST (12/2)
Length of Visible Light 10h 18m
Length of Day
9h 14m
Waning Gibbous, 86% of the Moon is Illuminated
Dec 2
Waning Gibbous
Dec 6
Last Quarter
Dec 13
New
Dec 20
First Quarter
Dec 28
Full

Hourly Weather History & Observations

Time (EST) Temp. Windchill Dew Point Humidity Pressure Visibility Wind Dir Wind Speed Gust Speed Precip Events Conditions
12:54 AM 28.0 °F 24.2 °F 25.0 °F 88% 30.52 in 8.0 mi North 3.5 mph - N/A   Overcast
1:52 AM 28.4 °F - 24.8 °F 86% 30.50 in 6.0 mi Calm Calm - 0.00 in   Overcast
1:54 AM 28.9 °F 25.2 °F 26.1 °F 89% 30.51 in 6.0 mi NNW 3.5 mph - 0.00 in   Overcast
2:54 AM 28.9 °F - 26.1 °F 89% 30.50 in 5.0 mi Calm Calm - 0.00 in   Overcast
3:54 AM 30.0 °F - 27.0 °F 88% 30.47 in 5.0 mi Calm Calm - N/A   Overcast
4:54 AM 30.0 °F - 27.0 °F 88% 30.45 in 4.0 mi Calm Calm - N/A   Overcast
5:54 AM 30.0 °F - 28.0 °F 92% 30.44 in 5.0 mi Calm Calm - N/A   Overcast
6:54 AM 30.9 °F 27.5 °F 28.0 °F 89% 30.42 in 3.0 mi NNW 3.5 mph - N/A   Overcast
7:03 AM 30.2 °F - 28.4 °F 93% 30.41 in 0.5 mi Calm Calm - N/A   Overcast
7:54 AM 32.0 °F - 30.0 °F 92% 30.40 in 0.5 mi Calm Calm - 0.00 in   Overcast
8:54 AM 32.0 °F - 30.0 °F 92% 30.38 in 0.5 mi Calm Calm - N/A   Overcast
9:54 AM 34.0 °F - 30.9 °F 89% 30.36 in 0.2 mi Calm Calm - N/A Fog Fog
10:54 AM 35.1 °F - 33.1 °F 92% 30.32 in 0.2 mi Calm Calm - N/A Fog Fog
11:54 AM 37.0 °F - 35.1 °F 93% 30.29 in 0.5 mi Calm Calm - N/A Fog Fog
12:52 PM 39.2 °F 37.0 °F 35.6 °F 87% 30.26 in 1.0 mi SW 3.5 mph - N/A   Overcast
12:54 PM 39.0 °F 36.8 °F 37.0 °F 93% 30.27 in 1.2 mi West 3.5 mph - N/A   Overcast
1:33 PM 41.0 °F - 37.4 °F 87% 30.22 in 2.0 mi Calm Calm - N/A   Overcast
1:40 PM 41.0 °F - 37.4 °F 87% 30.22 in 3.0 mi Calm Calm - N/A   Scattered Clouds
1:54 PM 42.1 °F 39.2 °F 37.9 °F 85% 30.21 in 6.0 mi SSW 4.6 mph - N/A   Clear
2:54 PM 46.0 °F 44.8 °F 39.9 °F 79% 30.18 in 8.0 mi SSW 3.5 mph - N/A   Mostly Cloudy
3:54 PM 46.4 °F - 39.2 °F 76% 30.15 in 7.0 mi Calm Calm - N/A   Overcast
4:54 PM 45.0 °F - 39.9 °F 82% 30.14 in 7.0 mi Calm Calm - 0.00 in   Mostly Cloudy
5:54 PM 44.1 °F 42.5 °F 39.9 °F 85% 30.12 in 6.0 mi SSW 3.5 mph - N/A   Clear
6:54 PM 48.9 °F - 43.0 °F 80% 30.08 in 9.0 mi South 8.1 mph - N/A   Clear
7:54 PM 51.1 °F - 42.1 °F 71% 30.08 in 10.0 mi SSW 9.2 mph 18.4 mph N/A   Mostly Cloudy
8:54 PM 51.1 °F - 43.0 °F 74% 30.05 in 10.0 mi SSW 9.2 mph - 0.01 in   Overcast
9:54 PM 50.0 °F - 43.0 °F 77% 30.07 in 10.0 mi SSW 11.5 mph 19.6 mph 0.00 in   Overcast
10:54 PM 50.0 °F - 44.1 °F 80% 30.06 in 10.0 mi SW 11.5 mph 18.4 mph 0.00 in Rain Light Rain
11:54 PM 50.0 °F - 44.1 °F 80% 30.04 in 10.0 mi SSW 10.4 mph - 0.00 in   Overcast